マクノート彗星

C/2009 F2 ( McNaught )

English version
Home page
Updated on September 3, 2011

---------------------------------------------------------------------

・ プロフィール

発見日 2009年3月19日
発見光度 17.7等
発見者 R. H. McNaught (Siding Spring)

・ 写真集

・ 軌道要素

Epoch 2009 Nov. 25.0 TT = JDT 2455160.5
T 2009 Nov. 14.27470 TT                                 MPC
q   5.8751799            (2000.0)            P               Q
z  +0.0028568      Peri.  336.35857     -0.87340886     -0.07073058
 +/-0.0000019      Node   214.05811     -0.17809583     -0.87446807
e   0.9832157      Incl.   59.35572     -0.45325362     +0.47989872
From 299 observations 2009 Mar. 19-2011 July 31, mean residual 0".6.

・ 光度変化

        m1 = 6.0 + 5 logΔ + 10.0 log r

---------------------------------------------------------------------

軌道要素はM.P.E.C. 2011-P23に掲載されたものです。
光度グラフはComet for Windowsで作成したものです。

---------------------------------------------------------------------

Copyright(C) Seiichi Yoshida (comet@aerith.net). All rights reserved.